This demonstration page uses our WeatherBlox Daily Observations layout. Learn more.

Hourly Observations for August 21, 2015

Temp ( °F °C ) Dew Point ( °F °C ) Humidity (%) Winds ( mph kmh ) Pressure ( in mb ) Visibility ( mi km ) Precip ( " mm )
12:15 am 00:15 Clear 68 20 52 11 56 56 S 16 26 29.83 1010 10 16.0934 0 0
12:35 am 00:35 Clear 67 19.7 51 10.8 57 57 S 14 22 29.83 1010 10 16.0934 0 0
12:55 am 00:55 Clear 67 19.3 51 10.7 58 58 S 17 28 29.8 1009 10 16.0934 0 0
1:15 am 01:15 Clear 66 19 51 10.7 59 59 S 16 26 29.83 1010 10 16.0934 0 0
1:35 am 01:35 Clear 65 18.6 51 10.6 60 60 S 15 24 29.83 1010 10 16.0934 0 0
1:55 am 01:55 Clear 65 18.3 51 10.5 61 61 S 14 22 29.85 1011 10 16.0934 0 0
2:15 am 02:15 Clear 64 18 51 10.5 62 62 S 10 17 29.85 1011 10 16.0934 0 0
2:35 am 02:35 Clear 64 17.7 51 10.5 63 63 S 9 15 29.85 1011 10 16.0934 0 0
2:55 am 02:55 Clear 63 17.1 51 10.6 66 66 S 9 15 29.83 1010 10 16.0934 0 0
3:15 am 03:15 Clear 62 16.9 51 10.6 67 67 S 12 19 29.83 1010 10 16.0934 0 0
3:35 am 03:35 Clear 62 16.6 51 10.6 68 68 S 12 19 29.83 1010 10 16.0934 0 0
3:55 am 03:55 Clear 62 16.7 51 10.7 68 68 S 10 17 29.83 1010 10 16.0934 0 0
4:15 am 04:15 Clear 61 16 52 11 72 72 S 9 15 29.83 1010 10 16.0934 0 0
4:35 am 04:35 Clear 60 15.6 52 11.1 75 75 S 9 15 29.83 1010 10 16.0934 0 0
4:55 am 04:55 Clear 60 15.4 52 11.1 76 76 S 13 20 29.83 1010 10 16.0934 0 0
5:15 am 05:15 Clear 60 15.5 52 11.2 76 76 S 14 22 29.83 1010 10 16.0934 0 0
5:35 am 05:35 Clear 60 15.6 52 11.2 75 75 S 12 19 29.83 1010 10 16.0934 0 0
5:55 am 05:55 Clear 60 15.3 52 11.3 77 77 S 12 19 29.83 1010 10 16.0934 0 0
6:15 am 06:15 Clear 59 15.1 53 11.4 79 79 S 10 17 29.83 1010 10 16.0934 0 0
6:35 am 06:35 Clear 59 15 53 11.6 80 80 S 8 13 29.83 1010 10 16.0934 0 0
6:55 am 06:55 Sunny 59 15.1 53 11.7 80 80 S 7 11 29.83 1010 10 16.0934 0 0
7:15 am 07:15 Sunny 59 14.8 53 11.8 82 82 S 7 11 29.83 1010 10 16.0934 0 0
7:35 am 07:35 Sunny 59 15 54 12.1 83 83 S 8 13 29.83 1010 10 16.0934 0 0
7:55 am 07:55 Sunny 60 15.5 54 12.2 81 81 S 9 15 29.85 1011 10 16.0934 0 0
8:15 am 08:15 Sunny 61 16.2 54 12.2 77 77 S 10 17 29.85 1011 10 16.0934 0 0
8:35 am 08:35 Sunny 63 17.2 54 12.2 73 73 S 12 19 29.85 1011 10 16.0934 0 0
8:55 am 08:55 Sunny 64 18 54 12.3 69 69 S 13 20 29.85 1011 10 16.0934 0 0
9:15 am 09:15 Sunny 65 18.5 54 12.3 67 67 S 17 28 29.83 1010 10 16.0934 0 0
9:35 am 09:35 Sunny 67 19.2 55 12.6 66 66 S 10 17 29.83 1010 10 16.0934 0 0
9:55 am 09:55 Sunny 67 19.7 55 12.7 64 64 S 10 17 29.83 1010 10 16.0934 0 0
10:15 am 10:15 Sunny 69 20.6 55 12.7 61 61 S 14 22 29.8 1009 10 16.0934 0 0
10:35 am 10:35 Sunny 71 21.4 56 13.1 59 59 S 14 22 29.8 1009 10 16.0934 0 0
10:55 am 10:55 Sunny 72 22.2 56 13.2 57 57 S 15 24 29.77 1008 10 16.0934 0 0
11:15 am 11:15 Sunny 73 23 56 13.4 55 55 S 14 22 29.77 1008 10 16.0934 0 0
11:35 am 11:35 Sunny 74 23.6 57 13.8 54 54 S 15 24 29.77 1008 10 16.0934 0 0
11:55 am 11:55 Sunny 75 24.1 58 14.5 55 55 S 13 20 29.77 1008 10 16.0934 0 0
12:15 pm 12:15 Sunny 76 24.5 58 14.6 54 54 S 16 26 29.77 1008 10 16.0934 0 0
12:35 pm 12:35 Sunny 77 25.2 59 15 53 53 S 17 28 29.77 1008 10 16.0934 0 0
12:55 pm 12:55 Sunny 78 25.7 60 15.3 53 53 S 16 26 29.74 1007 10 16.0934 0 0
1:15 pm 13:15 Sunny 79 26.3 60 15.5 51 51 S 16 26 29.71 1006 10 16.0934 0 0
1:35 pm 13:35 Sunny 80 26.8 60 15.7 51 51 S 16 26 29.71 1006 10 16.0934 0 0
1:55 pm 13:55 Sunny 82 27.6 62 16.4 51 51 S 20 31 29.71 1006 10 16.0934 0 0
2:15 pm 14:15 Sunny 82 28 63 17 51 51 S 21 33 29.68 1005 10 16.0934 0 0
2:35 pm 14:35 Sunny 83 28.6 63 17.1 50 50 S 16 26 29.65 1004 10 16.0934 0 0
2:55 pm 14:55 Sunny 84 28.9 64 17.7 51 51 S 17 28 29.65 1004 10 16.0934 0 0
3:15 pm 15:15 Sunny 85 29.5 64 17.7 49 49 S 16 26 29.65 1004 10 16.0934 0 0
3:35 pm 15:35 Sunny 85 29.4 64 17.8 50 50 S 20 31 29.62 1003 10 16.0934 0 0
3:55 pm 15:55 Sunny 85 29.6 64 17.9 49 49 S 18 30 29.62 1003 10 16.0934 0 0
4:15 pm 16:15 Sunny 86 29.8 64 17.8 49 49 S 15 24 29.62 1003 10 16.0934 0 0
4:35 pm 16:35 Partly Cloudy 85 29.5 64 17.7 49 49 S 23 37 29.62 1003 10 16.0934 0 0
4:55 pm 16:55 Partly Cloudy 85 29.5 64 17.9 50 50 S 17 28 29.62 1003 10 16.0934 0 0
5:15 pm 17:15 Sunny 85 29.4 64 17.8 50 50 S 18 30 29.62 1003 10 16.0934 0 0
5:35 pm 17:35 Sunny 84 28.9 64 17.7 51 51 S 18 30 29.62 1003 10 16.0934 0 0
5:55 pm 17:55 Sunny 83 28.3 64 17.8 53 53 S 17 28 29.65 1004 10 16.0934 0 0
6:15 pm 18:15 Sunny 82 27.9 63 17.2 52 52 S 16 26 29.65 1004 10 16.0934 0 0
6:35 pm 18:35 Partly Cloudy 81 27.2 63 17.1 54 54 S 21 33 29.65 1004 10 16.0934 0 0
6:55 pm 18:55 Sunny 80 26.6 63 17.3 57 57 S 18 30 29.65 1004 10 16.0934 0 0
7:15 pm 19:15 Sunny 79 26.1 64 17.6 60 60 S 17 28 29.65 1004 10 16.0934 0 0
7:35 pm 19:35 Sunny 78 25.6 64 18 63 63 SSE 15 24 29.65 1004 10 16.0934 0 0
7:55 pm 19:55 Sunny 77 25.1 64 18 65 65 S 16 26 29.65 1004 10 16.0934 0 0
8:15 pm 20:15 Sunny 76 24.5 65 18.1 68 68 S 16 26 29.65 1004 10 16.0934 0 0
8:35 pm 20:35 Clear 75 24.1 65 18.5 71 71 S 15 24 29.68 1005 10 16.0934 0 0
8:55 pm 20:55 Clear 75 23.7 65 18.5 73 73 S 17 28 29.68 1005 10 16.0934 0 0
9:15 pm 21:15 Clear 74 23.1 65 18.5 75 75 S 14 22 29.68 1005 10 16.0934 0 0
9:35 pm 21:35 Clear 73 23 66 18.7 77 77 S 15 24 29.68 1005 10 16.0934 0 0
9:55 pm 21:55 Clear 73 22.5 66 18.7 79 79 S 12 19 29.68 1005 10 16.0934 0 0
10:15 pm 22:15 Clear 72 22.3 65 18.6 80 80 S 18 30 29.68 1005 10 16.0934 0 0
10:35 pm 22:35 Clear 72 22.2 66 18.7 81 81 S 18 30 29.68 1005 10 16.0934 0 0
10:55 pm 22:55 Clear 72 22 66 18.8 82 82 S 15 24 29.71 1006 10 16.0934 0 0
11:15 pm 23:15 Clear 71 21.6 66 18.8 84 84 S 16 26 29.68 1005 10 16.0934 0 0
11:35 pm 23:35 Clear 71 21.5 66 18.9 85 85 S 17 28 29.71 1006 10 16.0934 0 0
11:55 pm 23:55 Clear 70 21.1 66 18.8 87 87 S 16 26 29.74 1007 10 16.0934 0 0

Powered by AerisWeather